This is the latest recevied weather packets stored in our database for station/object KD9JOU-13. If no packets are shown the sender has not sent any weather packets the latest 1 day(s).
| Time | Temp. | Humidity | Pressure | Rain* | Wind** | Luminosity | Snow |
|---|---|---|---|---|---|---|---|
| 1778036012 | 10° C | 95% | 1010.5 hPa | - | 0.89 m/s, 311° | - | - |
| 1778035711 | 10° C | 95% | 1010.7 hPa | - | 0.89 m/s, 320° | - | - |
| 1778035411 | 10° C | 95% | 1010.8 hPa | - | 0.89 m/s, 309° | - | - |
| 1778035111 | 10° C | 95% | 1010.5 hPa | - | 1.34 m/s, 323° | - | - |
| 1778034811 | 10° C | 95% | 1010.3 hPa | - | 0.45 m/s, 318° | - | - |
| 1778034511 | 10° C | 95% | 1010 hPa | - | 1.34 m/s, 320° | - | - |
| 1778034212 | 10° C | 95% | 1009.8 hPa | - | 0.45 m/s, 292° | - | - |
| 1778033911 | 10° C | 95% | 1009.9 hPa | - | 0 m/s | - | - |
| 1778033611 | 10° C | 95% | 1010 hPa | - | 0.45 m/s, 308° | - | - |
| 1778033311 | 10° C | 95% | 1010 hPa | - | 1.34 m/s, 307° | - | - |
| 1778033011 | 10° C | 95% | 1010 hPa | - | 0.45 m/s, 296° | - | - |
| 1778032711 | 10° C | 95% | 1009.7 hPa | - | 0.89 m/s, 312° | - | - |
| 1778032411 | 10° C | 95% | 1009.7 hPa | - | 0.89 m/s, 344° | - | - |
| 1778032111 | 10° C | 95% | 1009.7 hPa | - | 0.89 m/s, 316° | - | - |
| 1778031811 | 10° C | 95% | 1009.4 hPa | - | 0 m/s | - | - |
| 1778031511 | 10° C | 95% | 1009.3 hPa | - | 1.34 m/s, 321° | - | - |
| 1778031212 | 10.56° C | 95% | 1009.4 hPa | - | 0.89 m/s, 314° | - | - |
| 1778030911 | 10.56° C | 95% | 1009.3 hPa | - | 0.45 m/s, 318° | - | - |
| 1778030611 | 10.56° C | 95% | 1009.1 hPa | - | 0 m/s | - | - |
| 1778030312 | 10.56° C | 95% | 1009.1 hPa | - | 0.89 m/s, 323° | - | - |
| 1778030011 | 10° C | 95% | 1008.9 hPa | - | 0 m/s | - | - |
| 1778029711 | 10.56° C | 95% | 1008.7 hPa | - | 0 m/s | - | - |
| 1778029411 | 10.56° C | 95% | 1008.6 hPa | - | 0 m/s | - | - |
| 1778029111 | 10.56° C | 95% | 1008.6 hPa | - | 0 m/s | - | - |
| 1778028811 | 10.56° C | 95% | 1008.6 hPa | - | 0 m/s | - | - |
* Rain since midnight (hover to see other rain measurements)
** Current wind speed in m/s (hover to see current wind gust speed)